Satellite: ASTRA 1B
Catalog number: 21139
Epoch time:      102364.00000000
Element set:     156 
Inclination:        0.0122 deg
RA of node:       319.8851 deg
Eccentricity:    0.0002995
Arg of perigee:    65.1991 deg
Mean anomaly:      92.3752 deg
Mean motion:    1.00273184 rev/day
Decay rate:    1.2799E-006 rev/day^2
Epoch rev:            3168
Checksum:              255

Satellite: METEOSAT 5 (MO
Catalog number: 21140
Epoch time:      103001.79588238
Element set:     659 
Inclination:        5.5239 deg
RA of node:        70.2571 deg
Eccentricity:    0.0001079
Arg of perigee:   154.6659 deg
Mean anomaly:     225.7305 deg
Mean motion:    1.00278351 rev/day
Decay rate:    1.3999E-007 rev/day^2
Epoch rev:            4557
Checksum:              307

Satellite: NOAA 12
Catalog number: 21263
Epoch time:      103001.95002355
Element set:     972 
Inclination:       98.6205 deg
RA of node:       352.3999 deg
Eccentricity:    0.0012929
Arg of perigee:   156.6568 deg
Mean anomaly:     203.5199 deg
Mean motion:   14.25046840 rev/day
Decay rate:    5.2099E-006 rev/day^2
Epoch rev:           60443
Checksum:              317

Satellite: OSCAR 22 (UoSA
Catalog number: 21575
Epoch time:      103001.95155605
Element set:     696 
Inclination:       98.1365 deg
RA of node:       356.4914 deg
Eccentricity:    0.0006455
Arg of perigee:   280.5005 deg
Mean anomaly:      79.5455 deg
Mean motion:   14.39119171 rev/day
Decay rate:    4.8500E-006 rev/day^2
Epoch rev:           60143
Checksum:              312

Satellite: METEOR 3-5
Catalog number: 21655
Epoch time:      103001.96413223
Element set:     490 
Inclination:       82.5577 deg
RA of node:        72.5042 deg
Eccentricity:    0.0012894
Arg of perigee:   322.3703 deg
Mean anomaly:      37.6516 deg
Mean motion:   13.16977571 rev/day
Decay rate:    5.1000E-007 rev/day^2
Epoch rev:           54721
Checksum:              288

Satellite: UARS
Catalog number: 21701
Epoch time:      103001.73475913
Element set:     789 
Inclination:       56.9806 deg
RA of node:       225.6454 deg
Eccentricity:    0.0006746
Arg of perigee:   110.2170 deg
Mean anomaly:     249.9525 deg
Mean motion:   15.02748158 rev/day
Decay rate:    9.3700E-006 rev/day^2
Epoch rev:           61852
Checksum:              308

Satellite: EUTELSAT 2-F3
Catalog number: 21803
Epoch time:      102364.03689237
Element set:     504 
Inclination:        2.4714 deg
RA of node:        89.6383 deg
Eccentricity:    0.0002540
Arg of perigee:   211.8649 deg
Mean anomaly:     191.4787 deg
Mean motion:    1.00269107 rev/day
Decay rate:    1.3400E-006 rev/day^2
Epoch rev:            3649
Checksum:              287

Satellite: INMARSAT 2-F3
Catalog number: 21814
Epoch time:      102365.27697718
Element set:     592 
Inclination:        1.7179 deg
RA of node:        57.6096 deg
Eccentricity:    0.0002442
Arg of perigee:   208.2427 deg
Mean anomaly:     151.4178 deg
Mean motion:    1.00275531 rev/day
Decay rate:    1.1600E-006 rev/day^2
Epoch rev:            4040
Checksum:              278

Satellite: INMARSAT 2-F4
Catalog number: 21940
Epoch time:      103001.45733081
Element set:     560 
Inclination:        2.3392 deg
RA of node:        18.5578 deg
Eccentricity:    0.0001957
Arg of perigee:   245.9905 deg
Mean anomaly:     109.7364 deg
Mean motion:    1.00267479 rev/day
Decay rate:   -3.5099E-006 rev/day^2
Epoch rev:            3919
Checksum:              308

Satellite: EUTELSAT 2-F4
Catalog number: 22028
Epoch time:      102365.09071760
Element set:     311 
Inclination:        1.5937 deg
RA of node:        93.1263 deg
Eccentricity:    0.0005707
Arg of perigee:   208.0581 deg
Mean anomaly:     178.4586 deg
Mean motion:    1.00271830 rev/day
Decay rate:   -9.4000E-007 rev/day^2
Epoch rev:            3128
Checksum:              271

Satellite: OSCAR 23 (KITS
Catalog number: 22077
Epoch time:      103001.91077424
Element set:     285 
Inclination:       66.0866 deg
RA of node:       225.5334 deg
Eccentricity:    0.0014737
Arg of perigee:   284.5645 deg
Mean anomaly:      75.3738 deg
Mean motion:   12.86407123 rev/day
Decay rate:   -3.7000E-007 rev/day^2
Epoch rev:           48817
Checksum:              310

Satellite: ASTRA 1C
Catalog number: 22653
Epoch time:      102364.00000000
Element set:     782 
Inclination:        0.0122 deg
RA of node:       319.8851 deg
Eccentricity:    0.0002995
Arg of perigee:    65.1991 deg
Mean anomaly:      92.3588 deg
Mean motion:    1.00273184 rev/day
Decay rate:    1.2799E-006 rev/day^2
Epoch rev:            3038
Checksum:              265

Satellite: METEOR 2-21
Catalog number: 22782
Epoch time:      103001.80371752
Element set:     482 
Inclination:       82.5492 deg
RA of node:       252.7797 deg
Eccentricity:    0.0023508
Arg of perigee:   118.0818 deg
Mean anomaly:     242.2727 deg
Mean motion:   13.83525282 rev/day
Decay rate:   -9.8999E-007 rev/day^2
Epoch rev:           47148
Checksum:              342

Satellite: KITSAT B
Catalog number: 22825
Epoch time:      103001.92719347
Element set:     490 
Inclination:       98.2794 deg
RA of node:        34.0442 deg
Eccentricity:    0.0009322
Arg of perigee:    44.5473 deg
Mean anomaly:     315.6459 deg
Mean motion:   14.28925028 rev/day
Decay rate:    2.1200E-006 rev/day^2
Epoch rev:           48307
Checksum:              293

Satellite: POSAT 1
Catalog number: 22826
Epoch time:      103001.61481073
Element set:     312 
Inclination:       98.2812 deg
RA of node:        34.8396 deg
Eccentricity:    0.0009887
Arg of perigee:    43.5869 deg
Mean anomaly:     316.6087 deg
Mean motion:   14.29146134 rev/day
Decay rate:    2.3499E-006 rev/day^2
Epoch rev:           48307
Checksum:              428

Satellite: ITAMSAT
Catalog number: 22828
Epoch time:      103001.60663665
Element set:     391 
Inclination:       98.2752 deg
RA of node:        35.0947 deg
Eccentricity:    0.0010719
Arg of perigee:    23.5768 deg
Mean anomaly:     336.5895 deg
Mean motion:   14.29491284 rev/day
Decay rate:    2.2500E-006 rev/day^2
Epoch rev:           45127
Checksum:              312

Satellite: EYESAT A
Catalog number: 22829
Epoch time:      103001.62439593
Element set:     422 
Inclination:       98.2788 deg
RA of node:        35.6940 deg
Eccentricity:    0.0010531
Arg of perigee:    23.7538 deg
Mean anomaly:     336.4124 deg
Mean motion:   14.29741863 rev/day
Decay rate:    3.0500E-006 rev/day^2
Epoch rev:           48320
Checksum:              290

Satellite: METEOSAT 6
Catalog number: 22912
Epoch time:      102363.07376159
Element set:     615 
Inclination:        2.5479 deg
RA of node:        82.6906 deg
Eccentricity:    0.0002862
Arg of perigee:   207.8238 deg
Mean anomaly:     202.8288 deg
Mean motion:    1.00267117 rev/day
Decay rate:    7.0999E-007 rev/day^2
Epoch rev:            3178
Checksum:              316

Satellite: GOES 8
Catalog number: 23051
Epoch time:      102364.29789727
Element set:     540 
Inclination:        0.4925 deg
RA of node:       100.2377 deg
Eccentricity:    0.0002373
Arg of perigee:   159.7927 deg
Mean anomaly:     230.9121 deg
Mean motion:    1.00263661 rev/day
Decay rate:   -2.4200E-006 rev/day^2
Epoch rev:            3930
Checksum:              271

Satellite: ASTRA 1D
Catalog number: 23331
Epoch time:      102362.90693288
Element set:     796 
Inclination:        0.0566 deg
RA of node:       200.0786 deg
Eccentricity:    0.0003606
Arg of perigee:    30.3573 deg
Mean anomaly:     217.5587 deg
Mean motion:    1.00276769 rev/day
Decay rate:    1.5099E-006 rev/day^2
Epoch rev:            3035
Checksum:              292

Satellite: RADIO ROSTO
Catalog number: 23439
Epoch time:      103001.66594848
Element set:     686 
Inclination:       64.8134 deg
RA of node:       118.9428 deg
Eccentricity:    0.0148239
Arg of perigee:   124.5881 deg
Mean anomaly:     236.9129 deg
Mean motion:   11.27548332 rev/day
Decay rate:   -4.1999E-007 rev/day^2
Epoch rev:           33019
Checksum:              341

Satellite: NOAA 14
Catalog number: 23455
Epoch time:      103001.97001596
Element set:     527 
Inclination:       99.1884 deg
RA of node:        19.2845 deg
Eccentricity:    0.0009471
Arg of perigee:     7.8886 deg
Mean anomaly:     352.2432 deg
Mean motion:   14.13278135 rev/day
Decay rate:    2.0800E-006 rev/day^2
Epoch rev:           41275
Checksum:              305

Satellite: HIMAWARI 5 (GM
Catalog number: 23522
Epoch time:      103001.11435623
Element set:     33 
Inclination:        1.6318 deg
RA of node:        83.4217 deg
Eccentricity:    0.0000856
Arg of perigee:    90.1843 deg
Mean anomaly:     108.1055 deg
Mean motion:    1.00274215 rev/day
Decay rate:   -2.7700E-006 rev/day^2
Epoch rev:            2840
Checksum:              351

Satellite: HOT BIRD 1
Catalog number: 23537
Epoch time:      102364.09542247
Element set:     531 
Inclination:        0.1178 deg
RA of node:        62.3444 deg
Eccentricity:    0.0060331
Arg of perigee:   260.0229 deg
Mean anomaly:     182.7219 deg
Mean motion:    1.00272908 rev/day
Decay rate:    9.0999E-007 rev/day^2
Epoch rev:            2846
Checksum:              282

Satellite: GOES 9
Catalog number: 23581
Epoch time:      102354.75358751
Element set:     441 
Inclination:        0.5117 deg
RA of node:        95.2472 deg
Eccentricity:    0.0006996
Arg of perigee:   240.2116 deg
Mean anomaly:     278.5179 deg
Mean motion:    1.00272358 rev/day
Decay rate:   -5.8000E-007 rev/day^2
Epoch rev:            2776
Checksum:              300

